Tracking 17842 objects as of 1-September-2016
HD Live streaming from Space Station
objects crossing your sky now

COSMOS 2251 DEB

Track COSMOS 2251 DEB now!
10-day predictions


NORAD ID: 34781
Int'l Code: 1993-036AAJ
Perigee: 478.1 km
Apogee: 503.6 km
Inclination: 74.0 °
Period: 94.3 minutes
Semi major axis: 6861 km
RCS: 0.0067 m2 (small)
Launch date: June 16, 1993
Source: Commonwealth of Independent States (former USSR) (CIS)
Launch site: PLESETSK MISSILE AND SPACE COMPLEX (PKMTR)

Note: This is SATELLITE DEBRIS
Your satellite tracking list
Your tracking list is empty





NASA's NSSDC Master Catalog

Two Line Element Set (TLE):
1 34781U 93036AAJ 16244.08602839  .00073536  00000-0  27051-2 0  9998
2 34781  74.0315 125.3220 0018572 120.1216 240.1829 15.27359558397696
Source of the keplerian elements: AFSPC

N2YO: 584